GFSMW_sfc_thetae_132.txt.gz
Theta_e
313 313 314 319 322 325 327 329 329 330 331 329 328 328 327 328 329 329 329 327 326 326 324 323 322 322 320 318 318 318 318 317 318 316 317 317 318 319 317 314 311 311 311
307 309 312 313 320 322 325 327 329 330 330 331 330 330 329 329 329 330 329 329 327 326 325 324 323 322 322 321 320 318 317 317 318 314 314 309 311 314 316 314 313 311 310
307 306 306 309 315 320 323 325 326 328 330 331 331 331 330 329 327 327 328 329 329 328 326 325 324 323 323 321 321 319 318 315 316 317 312 307 305 308 311 310 312 310 309
306 307 307 307 307 315 320 324 326 327 328 329 329 329 327 325 327 327 328 329 329 328 328 326 325 324 324 322 322 322 320 318 315 316 318 316 312 307 304 306 307 310 309
305 305 306 309 309 311 311 317 321 323 326 328 329 329 328 328 328 328 327 327 328 328 328 327 325 324 324 323 322 322 321 320 318 316 314 315 315 314 312 308 309 304 306
304 305 308 309 308 308 311 312 313 316 320 324 326 327 328 327 326 326 326 327 328 328 328 328 326 325 324 323 323 322 321 321 320 319 317 314 310 311 309 309 310 309 309
302 304 302 303 304 304 306 308 310 312 314 318 322 324 327 328 327 326 325 325 325 326 327 328 327 325 325 324 324 323 322 321 320 319 319 319 316 315 313 311 309 306 309
300 300 300 302 302 304 303 304 306 308 311 312 317 322 324 327 328 328 327 326 325 326 327 327 327 326 325 325 324 323 323 322 321 319 319 319 319 319 317 314 311 309 310
300 299 300 300 301 302 303 302 302 305 308 310 312 315 322 323 325 327 328 327 326 327 326 325 325 325 325 324 324 324 323 323 322 321 320 319 320 319 319 318 317 314 308
297 299 299 300 301 302 302 302 302 302 304 307 310 313 316 320 323 325 325 326 326 326 324 324 324 324 324 324 324 324 324 323 322 322 321 320 321 320 320 319 317 316 313
296 298 299 300 300 301 301 301 301 301 302 304 307 310 313 317 319 321 323 324 324 324 324 324 324 323 323 323 322 323 323 321 321 321 320 319 320 319 318 317 316 315 314
297 297 297 298 299 301 301 301 301 301 302 303 308 308 310 314 317 318 319 320 322 323 323 324 324 324 323 323 322 322 321 320 319 319 319 318 318 316 316 315 314 314 315
296 297 297 298 298 299 300 301 303 301 301 301 303 311 312 312 314 316 318 319 319 320 321 323 322 323 322 322 321 321 320 319 318 318 317 317 316 314 315 314 314 313 312
296 295 294 294 296 297 297 298 299 302 302 301 300 303 311 314 315 316 317 319 319 319 320 321 321 321 321 321 321 320 319 318 317 317 316 316 314 313 313 312 311 309 307
293 293 294 294 294 294 295 296 297 299 301 301 299 300 302 310 309 308 310 309 309 311 311 314 316 317 317 317 318 318 317 316 315 312 313 311 304 298 304 307 307 302 296
290 291 291 291 291 292 293 293 295 296 297 298 299 299 299 298 300 301 300 301 301 302 301 301 301 303 303 296 297 300 309 308 307 306 300 295 291 294 294 296 297 299 296
287 287 288 289 289 290 291 290 292 293 292 294 298 295 295 294 295 294 294 294 296 296 295 296 296 296 295 296 295 295 301 302 301 298 294 291 291 292 292 294 294 292 296
285 285 285 286 287 289 289 288 289 288 289 292 295 292 290 289 289 290 292 292 293 292 292 292 293 292 291 294 294 294 296 294 293 292 291 290 289 290 290 289 288 287 287
283 284 284 285 285 286 286 285 286 285 286 288 288 289 288 288 290 289 291 292 290 289 289 288 287 287 288 293 293 291 288 288 287 287 289 289 288 291 292 287 286 285 285
281 282 282 281 282 283 283 282 283 283 284 286 285 287 288 288 289 290 289 287 286 285 285 285 285 285 286 291 292 290 287 286 285 285 286 287 288 290 291 286 286 285 284
280 280 279 278 279 279 279 280 281 281 283 283 284 286 287 288 289 288 286 286 286 285 285 285 285 285 286 288 291 291 286 286 285 285 285 286 290 290 290 289 286 286 286
276 276 275 275 276 276 277 277 276 279 279 280 281 284 287 287 287 286 285 285 285 285 285 285 284 285 285 287 290 290 289 290 286 285 285 287 290 290 290 288 290 289 286
274 274 273 272 273 273 274 273 273 275 276 276 278 283 286 286 286 286 285 285 285 285 285 285 284 283 284 285 288 289 289 289 286 286 288 290 290 290 289 289 289 285 285
271 271 269 269 268 270 270 269 271 273 272 272 276 282 285 285 285 285 285 285 285 285 285 285 284 283 284 284 284 285 285 286 287 287 286 287 287 287 285 284 284 284 284
269 268 267 266 266 267 267 267 269 269 269 271 274 280 283 284 282 282 283 283 283 286 285 285 285 284 283 284 285 285 284 285 285 285 284 283 283 282 282 282 282 282 280
266 265 264 264 264 264 265 265 267 267 268 270 275 280 281 281 281 282 283 286 287 287 287 287 285 284 287 287 287 286 287 287 286 282 281 280 280 280 280 280 279 278 280

GFSMW_sfc_thetae_135.txt.gz
Theta_e
307 309 314 318 323 324 326 327 328 329 329 328 327 327 326 326 327 328 328 326 326 326 324 323 320 319 317 316 315 315 314 315 316 314 315 314 316 318 318 316 313 311 311
303 306 306 313 318 322 324 325 326 328 329 329 329 329 328 329 328 328 328 328 326 325 325 323 321 321 320 316 316 316 315 316 316 313 311 307 310 314 316 315 314 312 311
303 304 305 304 312 319 321 323 326 327 329 330 330 328 328 328 326 327 326 327 327 326 325 324 323 322 322 320 318 317 317 315 315 316 311 305 304 307 311 312 313 313 310
303 303 304 304 303 314 319 321 323 324 327 329 328 327 326 325 327 328 328 328 328 327 325 324 324 323 323 322 321 321 319 318 315 314 318 313 309 305 304 307 307 310 309
299 302 304 306 306 306 309 316 320 322 325 326 328 328 327 328 329 329 328 328 328 328 327 326 324 323 323 323 322 321 320 319 318 317 314 316 314 310 308 307 308 304 308
301 302 302 302 302 303 303 305 309 313 319 323 325 326 327 327 327 327 325 326 327 327 327 327 326 324 324 323 322 322 321 320 319 319 318 315 312 312 309 308 309 307 308
298 298 299 299 300 301 302 302 303 304 308 311 318 322 325 326 327 327 326 325 325 326 326 327 326 325 324 324 323 322 321 321 319 318 317 317 316 314 313 311 308 305 307
297 298 297 298 298 300 301 301 301 301 303 306 308 313 319 323 325 327 328 327 326 326 327 327 327 326 325 324 323 323 322 322 321 319 318 318 318 318 316 313 310 306 307
297 298 298 298 298 299 300 300 300 301 302 302 305 307 311 318 321 324 327 327 327 326 326 326 326 326 326 324 323 323 322 322 321 321 320 319 320 320 319 317 315 312 307
296 296 297 297 298 299 299 300 301 300 301 302 302 305 307 311 317 321 323 325 326 326 324 324 325 325 325 325 323 323 323 322 322 322 321 320 320 320 319 318 318 317 314
294 294 295 296 296 297 298 298 299 300 301 302 302 304 306 309 311 315 320 322 324 322 322 322 323 324 324 324 323 323 323 322 322 322 321 320 321 319 319 319 318 316 316
293 294 294 294 294 295 296 296 297 298 299 301 301 302 306 310 311 312 315 318 319 320 320 321 323 323 324 324 323 322 322 321 320 320 320 319 319 318 319 318 316 316 316
292 292 292 292 292 292 294 293 294 295 297 297 298 300 301 306 311 314 314 315 316 317 318 321 321 322 322 322 322 322 321 321 321 320 318 318 317 316 317 316 315 315 314
291 291 290 289 290 290 291 291 291 294 293 293 294 296 299 301 306 311 311 313 315 317 317 318 319 320 320 321 321 320 320 320 319 319 318 317 316 316 315 314 313 313 311
288 287 287 287 287 287 288 289 289 289 290 290 291 294 297 299 300 301 303 304 306 307 308 308 309 312 315 314 317 318 318 318 317 314 315 315 310 302 309 313 312 310 306
285 285 285 285 285 285 286 287 287 286 288 288 289 292 292 293 296 296 296 296 298 300 301 300 301 302 303 296 297 299 308 309 309 311 309 298 291 296 297 299 301 304 302
281 282 282 283 283 283 284 284 284 284 286 286 287 289 287 287 289 291 291 293 294 295 295 295 296 296 297 295 295 294 300 302 303 302 297 292 292 292 293 294 294 292 296
279 280 281 280 281 281 283 281 282 282 285 284 285 286 285 285 287 288 288 289 293 292 292 293 293 293 292 294 294 294 297 295 294 294 292 291 290 291 291 289 288 287 287
279 280 280 279 278 279 279 277 278 280 282 281 282 282 283 284 285 286 288 290 291 290 290 289 288 288 290 293 293 292 289 288 287 288 289 290 289 291 292 287 286 285 285
277 277 277 277 276 276 276 275 276 277 277 278 278 279 281 282 284 286 288 289 288 287 286 286 286 286 287 291 292 291 286 286 285 285 286 287 289 291 292 287 286 285 285
275 275 274 273 274 274 274 273 273 273 274 275 276 277 278 281 284 286 287 288 287 286 285 285 285 286 286 287 291 292 287 287 286 285 285 286 291 291 291 290 287 286 286
273 273 271 271 271 272 271 270 270 272 271 272 272 273 276 279 283 286 286 287 286 285 285 285 284 285 285 287 290 291 290 289 286 285 285 286 290 291 291 288 290 289 286
270 270 269 268 269 269 269 267 268 269 269 268 268 270 274 277 283 285 285 286 286 285 285 285 284 283 284 285 289 290 291 289 285 286 287 290 290 290 290 290 289 285 285
267 267 266 265 265 266 267 266 267 267 266 265 267 269 272 276 282 285 285 285 286 285 285 285 284 283 283 283 284 285 286 287 287 288 287 287 286 287 286 285 285 284 284
266 265 264 263 263 265 264 265 266 265 265 265 267 269 274 278 281 283 283 283 284 285 286 286 286 284 283 284 285 285 285 285 286 285 285 283 282 282 282 282 282 282 282
264 263 263 262 263 262 263 264 265 264 264 265 268 269 272 276 280 281 281 285 286 287 287 287 286 284 286 287 287 287 287 288 286 283 282 280 280 280 280 279 279 280 280

GFSMW_sfc_thetae_138.txt.gz
Theta_e
305 306 307 311 320 323 325 327 326 327 327 326 325 326 325 325 326 327 326 326 326 326 325 325 321 318 316 316 315 314 313 313 313 312 312 315 315 314 316 317 314 312 311
301 304 305 307 314 320 324 326 327 327 327 328 328 328 328 328 328 328 327 327 326 325 325 325 323 320 318 315 314 314 313 314 315 312 309 310 311 314 316 316 315 313 312
302 304 302 303 304 311 318 323 325 326 327 328 327 326 326 326 325 327 327 327 327 326 325 325 324 322 321 319 316 315 314 313 313 316 312 306 305 306 311 314 314 314 310
299 300 301 301 302 304 312 318 321 322 325 327 325 325 325 324 326 327 328 328 327 327 326 325 324 323 322 321 320 318 316 315 313 312 317 316 308 305 304 307 307 310 311
298 300 301 301 300 302 302 305 312 318 321 323 326 325 324 327 328 328 327 328 328 327 326 325 325 323 323 322 321 320 318 317 316 315 313 315 316 312 308 306 308 304 308
298 298 298 299 299 300 300 300 301 303 306 311 319 322 324 325 326 326 327 327 327 328 326 326 324 324 323 322 322 322 321 319 319 319 317 315 312 313 311 309 310 308 308
294 295 296 296 298 298 299 301 300 300 302 303 305 310 318 322 323 325 327 327 326 326 327 326 326 325 324 324 323 322 321 320 319 319 318 318 317 316 314 312 310 308 309
295 295 295 296 297 298 298 298 299 300 301 301 302 303 306 312 316 320 323 326 327 327 328 327 327 326 325 324 323 322 322 322 321 320 320 319 319 318 316 313 311 308 307
294 294 295 295 296 296 296 297 297 298 299 301 302 302 304 305 307 312 316 321 327 328 327 326 326 326 326 325 324 323 322 322 321 321 320 320 320 320 318 317 315 311 307
293 293 293 294 294 295 295 295 295 296 297 298 299 301 302 304 307 310 312 315 321 325 326 325 324 325 326 326 325 323 323 322 322 321 320 320 320 319 320 318 317 315 312
291 291 292 292 292 293 293 292 292 294 295 295 295 297 299 301 304 308 312 313 316 320 323 324 323 324 324 325 325 324 323 321 321 321 320 320 320 319 319 319 318 316 315
290 290 290 289 289 290 291 290 290 291 291 292 292 294 296 299 300 301 307 312 314 316 318 321 321 322 322 323 323 323 322 321 320 321 320 320 320 319 320 319 317 317 317
289 288 287 287 287 287 288 288 288 288 289 289 290 291 293 295 295 297 301 303 307 312 315 316 317 318 320 321 322 322 322 322 321 321 320 320 319 318 319 318 317 317 316
286 286 285 284 285 285 285 286 286 286 286 287 288 289 291 291 291 293 295 297 300 304 309 310 313 316 318 319 320 320 321 321 321 321 320 320 319 317 317 316 316 316 314
283 283 283 283 283 282 282 284 283 283 284 285 286 287 289 289 288 289 290 292 294 297 300 303 305 307 309 310 306 314 318 318 318 317 317 318 312 303 310 315 315 313 311
281 281 282 281 281 280 280 282 280 280 282 283 284 285 286 285 286 287 288 289 290 293 294 296 297 298 302 298 296 296 303 306 308 312 311 310 296 299 297 299 300 307 310
278 278 279 278 278 278 280 277 277 278 280 281 282 281 283 281 282 285 286 287 289 291 292 293 294 294 296 296 295 294 296 299 303 303 301 296 293 292 295 294 294 293 296
276 277 277 276 276 277 276 275 276 277 277 277 278 277 277 277 279 281 284 286 288 289 290 292 293 293 293 294 294 293 295 296 296 296 296 294 292 291 291 291 289 288 288
276 275 276 275 275 274 273 274 274 274 274 275 274 274 275 275 276 278 281 284 286 288 289 290 290 289 290 292 293 293 290 289 290 289 290 292 290 291 292 288 286 286 285
274 274 273 273 272 271 272 271 272 271 272 271 272 273 273 274 274 275 278 283 286 286 288 288 288 287 287 290 292 292 287 287 287 286 287 286 289 291 292 288 287 286 285
272 272 270 269 269 270 270 269 269 269 270 270 270 271 271 272 272 275 278 281 285 286 287 287 287 286 286 287 290 292 288 287 287 286 286 286 291 292 292 290 287 287 286
269 269 267 267 268 268 268 267 267 268 268 268 268 268 268 270 272 273 276 281 285 285 286 286 287 287 286 286 289 291 291 290 286 286 286 286 291 291 292 289 290 290 286
267 267 266 265 266 266 267 265 266 267 266 265 265 266 268 270 272 273 276 280 284 285 285 286 286 286 285 285 288 290 291 291 286 285 287 289 291 291 290 290 290 285 285
266 265 264 263 263 265 265 264 265 266 264 263 265 266 268 269 271 274 278 281 283 284 285 285 285 286 284 284 285 285 286 286 286 287 287 287 287 287 287 286 285 285 285
265 264 263 263 262 263 263 263 265 265 263 264 265 267 268 269 271 274 278 282 281 282 282 284 285 285 284 284 285 285 285 285 285 285 285 283 283 282 282 282 282 282 283
263 262 262 262 261 261 261 262 263 264 263 264 266 267 267 269 271 273 279 282 282 281 281 281 285 285 286 286 286 286 286 286 286 283 281 280 280 280 279 279 279 280 280

GFSMW_sfc_thetae_141.txt.gz
Theta_e
305 304 304 304 306 317 322 325 325 326 326 323 323 323 322 323 323 325 326 327 327 327 326 325 322 319 318 317 316 314 313 312 311 310 311 313 314 315 317 317 315 314 313
304 304 304 302 304 311 319 322 324 326 325 326 326 326 324 325 325 326 326 326 326 326 326 325 325 321 320 317 315 315 312 313 312 311 308 307 309 313 316 316 316 316 314
302 302 301 301 301 301 308 318 322 324 324 325 325 324 325 323 323 325 327 327 327 327 325 326 325 324 322 320 317 316 315 314 312 314 311 305 305 305 309 314 316 315 312
299 298 298 298 299 300 305 312 317 320 322 324 323 323 324 323 325 326 327 328 328 327 327 325 325 325 323 321 321 318 316 315 313 311 315 315 309 304 302 307 308 312 311
296 297 298 298 298 298 298 299 301 303 306 316 321 322 322 325 326 326 324 326 327 327 327 326 325 324 324 323 322 320 317 317 315 315 313 313 315 314 309 307 310 305 308
295 295 296 297 297 298 298 299 300 300 301 301 302 307 315 320 323 324 324 326 327 327 326 326 325 325 324 323 322 321 321 318 318 317 317 314 312 311 312 310 310 310 312
292 293 294 294 295 295 296 298 298 297 299 300 300 300 302 305 309 313 318 322 325 326 327 326 325 324 324 324 323 322 321 321 319 318 317 318 317 317 315 313 312 310 311
292 292 293 293 293 294 294 294 295 295 296 297 297 299 300 302 304 306 308 311 315 321 327 326 326 326 325 325 323 323 322 322 321 320 320 319 319 319 317 315 312 309 310
290 290 291 292 292 292 292 291 292 293 294 293 294 296 298 299 300 303 308 310 313 316 320 326 326 326 326 326 325 323 322 322 322 321 321 320 320 320 319 318 316 312 308
289 289 289 289 290 290 290 290 291 290 291 291 291 294 295 297 299 300 301 304 310 312 314 318 323 324 325 325 325 324 324 322 322 321 320 320 320 320 320 319 317 316 312
287 287 287 287 287 288 288 288 288 287 287 288 289 291 293 295 296 295 296 299 302 304 307 312 316 321 322 324 324 324 324 322 321 322 321 320 321 320 320 319 318 316 315
287 286 285 285 284 284 285 286 286 285 285 285 288 289 289 292 290 290 292 294 296 298 300 305 311 316 319 321 322 322 323 322 321 321 320 320 320 319 320 319 317 317 317
285 284 283 283 283 282 282 284 283 282 283 284 286 287 287 288 288 287 289 291 291 293 295 298 301 306 312 317 319 320 321 321 322 321 320 320 320 318 319 319 318 317 317
283 282 282 281 282 281 280 282 280 280 280 282 284 284 284 285 286 285 286 288 289 290 292 294 296 299 303 307 312 314 317 319 320 321 320 320 320 319 318 318 317 317 315
282 281 281 280 280 279 278 280 278 278 278 280 281 282 281 282 282 282 283 284 287 289 290 292 293 294 296 299 301 302 304 306 309 316 318 319 313 303 311 316 316 315 313
279 279 279 278 277 276 277 277 276 276 278 278 278 279 278 277 278 279 279 281 283 287 289 290 291 292 294 295 295 295 297 298 301 304 307 308 298 300 298 298 298 304 311
277 277 276 276 275 275 275 273 274 275 275 276 277 275 275 275 275 276 277 278 280 283 286 288 290 291 293 294 294 293 295 295 296 298 300 299 297 293 298 296 296 296 298
275 275 274 273 273 273 272 273 273 274 273 274 273 273 273 273 274 274 275 276 277 279 283 287 288 289 291 293 293 292 293 294 294 295 295 295 295 294 293 293 291 290 290
273 273 273 272 271 271 271 271 272 272 272 271 270 271 271 271 272 272 273 274 275 278 281 285 286 287 288 291 292 292 290 289 289 290 291 292 291 292 293 290 288 286 286
272 271 271 270 269 268 270 270 270 270 269 269 270 270 270 270 270 271 272 273 275 277 280 283 286 287 287 290 291 291 288 287 288 289 288 287 289 291 292 289 288 287 286
270 269 268 267 267 268 269 268 268 267 268 268 268 268 269 269 270 271 272 272 273 276 279 283 286 287 288 288 290 291 288 287 287 287 288 288 289 291 292 292 287 288 286
268 268 266 266 267 268 267 266 266 266 267 267 266 266 267 269 271 270 271 273 275 277 280 283 285 287 288 288 289 290 291 291 287 287 288 287 289 291 292 291 290 291 287
266 266 265 265 265 265 265 264 264 266 265 264 264 266 268 269 270 270 271 272 274 278 281 282 282 284 287 288 289 289 290 290 288 287 287 289 289 291 291 291 290 287 285
265 265 264 263 262 263 264 263 264 265 263 262 264 267 267 267 269 271 273 275 278 277 276 275 277 282 285 286 287 286 285 285 286 286 286 288 287 287 286 285 286 284 285
264 264 262 262 261 262 261 261 263 263 262 263 265 266 267 267 268 269 272 273 275 277 275 274 276 277 280 284 287 286 285 285 285 285 284 283 282 281 281 281 282 282 283
262 261 261 260 259 259 259 260 261 262 261 262 264 265 266 266 267 267 268 273 275 276 277 277 277 276 280 282 283 282 283 285 285 280 278 277 278 277 278 278 278 278 279

GFSMW_sfc_thetae_147.txt.gz
Theta_e
304 306 304 303 303 305 305 307 316 322 325 324 322 322 322 323 325 329 330 331 331 330 329 328 327 324 322 322 322 320 318 319 319 315 316 317 318 317 318 320 320 320 320
302 303 301 300 299 299 302 309 315 322 324 325 325 325 325 325 325 326 326 329 330 330 329 329 328 327 322 321 321 319 318 317 319 314 313 311 316 316 317 319 319 318 319
299 299 297 296 297 298 298 301 302 304 309 321 325 324 325 325 325 324 325 325 326 327 328 328 328 328 325 322 323 321 318 317 319 316 315 307 307 310 314 316 317 317 318
295 295 295 294 295 296 298 298 299 300 302 303 314 321 321 320 322 324 326 327 326 325 326 326 327 327 326 325 324 324 321 319 317 315 316 318 318 312 312 311 313 317 316
293 292 292 293 293 294 295 296 295 295 297 299 300 302 302 305 307 307 309 310 314 321 327 327 328 326 326 325 325 324 322 321 319 318 317 314 315 316 312 309 314 312 314
291 291 292 292 291 292 293 293 292 292 293 295 296 297 298 299 301 302 303 306 309 313 315 314 318 322 325 324 325 325 324 322 320 320 319 317 312 311 311 310 312 313 317
289 289 288 288 289 288 289 290 289 288 290 292 293 294 296 297 297 297 298 300 302 306 305 307 307 312 316 320 324 324 323 323 322 320 319 319 319 318 316 313 313 313 317
287 287 287 287 287 287 287 287 286 286 287 289 290 291 292 294 293 293 293 294 295 297 299 299 302 304 306 312 318 322 323 323 322 321 321 320 320 319 318 316 314 311 313
285 285 285 285 286 286 285 284 284 284 284 286 288 289 289 290 291 290 290 290 292 292 293 295 296 299 301 306 310 315 318 322 322 321 321 320 321 321 320 319 317 313 309
284 284 283 283 283 284 284 283 282 281 282 284 285 287 287 286 287 289 286 286 288 289 290 291 293 295 297 300 303 306 311 315 319 321 321 320 321 321 321 320 319 317 314
283 283 283 282 281 282 282 280 280 280 280 282 283 284 284 283 283 283 284 284 285 286 287 289 291 292 294 296 297 299 303 305 309 313 316 318 320 320 320 320 320 318 317
282 282 281 280 279 279 280 278 278 278 279 280 281 281 281 280 280 280 281 282 282 283 284 286 288 290 291 294 294 294 297 299 298 301 304 307 311 314 320 319 318 318 318
281 280 279 278 278 278 278 277 277 277 278 278 279 279 278 278 278 278 279 280 280 281 282 283 284 286 289 291 293 294 294 294 294 296 298 299 304 305 309 313 318 318 318
281 279 278 277 277 277 276 276 276 276 277 277 277 276 276 276 276 277 278 278 279 279 279 280 281 283 286 289 291 291 291 292 293 294 295 296 297 298 302 301 304 308 313
279 279 278 276 275 276 275 275 275 275 276 275 276 275 275 275 276 276 276 277 278 278 278 279 279 281 284 287 288 289 290 290 291 293 293 295 294 291 294 296 299 300 302
278 277 277 276 275 274 274 274 274 274 275 274 274 274 274 274 275 275 275 275 276 276 277 277 278 279 282 285 286 287 287 287 289 291 292 293 292 293 293 294 295 296 296
277 276 274 273 273 272 272 271 273 273 273 273 273 273 273 273 273 273 274 274 274 275 275 276 278 279 281 284 286 286 286 286 287 289 291 292 293 292 294 295 294 294 294
275 273 272 270 270 271 270 272 272 272 272 272 271 271 271 271 272 272 273 273 274 274 275 277 279 281 282 285 286 286 286 286 287 288 289 290 291 292 291 292 292 292 293
272 271 271 270 269 269 270 271 271 271 270 270 270 270 270 270 270 271 272 273 273 274 276 278 279 278 279 282 283 284 284 284 285 287 288 290 289 290 291 290 288 288 289
271 270 270 269 268 268 269 270 269 268 267 268 268 269 269 269 270 271 271 272 274 275 277 278 277 277 277 280 281 282 282 282 284 286 287 288 289 290 291 289 288 286 288
269 269 268 267 266 268 269 268 267 266 266 267 267 267 268 269 271 271 271 272 274 274 274 275 275 276 276 277 279 281 279 279 280 284 285 286 289 290 291 291 288 288 289
268 268 266 265 265 267 266 265 264 265 265 265 265 265 267 269 270 269 270 272 271 272 272 272 272 274 275 276 278 280 279 280 277 280 284 285 288 289 289 289 290 291 291
266 266 265 264 264 264 264 263 263 264 264 262 262 264 266 267 268 268 268 270 270 271 271 271 269 270 273 274 277 277 277 277 276 276 278 278 280 281 283 284 285 284 286
265 264 264 262 261 262 262 261 262 262 259 259 262 265 265 265 266 267 268 269 268 270 270 270 268 269 271 272 274 274 273 274 273 272 271 273 273 274 274 274 277 278 281
264 263 262 261 260 260 260 259 260 260 259 261 263 263 264 263 264 265 266 268 269 272 270 271 270 268 269 272 274 274 272 271 272 267 267 266 266 266 267 269 270 271 272
262 261 260 259 257 257 257 257 256 257 256 260 261 262 262 262 263 263 263 268 270 272 272 273 272 271 273 274 274 273 272 272 270 263 262 262 262 262 263 264 265 267 267

GFSMW_sfc_thetae_150.txt.gz
Theta_e
310 310 310 309 309 311 313 316 316 318 323 327 328 329 329 331 333 334 335 335 335 333 332 332 332 331 327 326 327 326 323 322 323 320 318 321 323 325 325 326 325 325 326
308 308 305 306 306 307 308 310 313 319 326 329 330 331 332 333 333 333 332 333 333 332 331 330 330 330 327 325 325 324 321 320 323 315 315 312 318 322 323 325 324 324 325
303 302 302 303 304 303 304 304 306 309 310 320 328 329 331 331 329 329 328 329 328 328 330 330 329 329 328 325 325 324 322 319 323 321 318 312 311 317 320 320 322 322 322
300 300 300 300 300 300 301 302 302 304 306 308 310 313 315 316 310 310 313 315 317 322 326 327 328 328 328 326 325 325 323 322 318 321 319 320 319 313 313 319 319 320 320
298 297 297 297 297 298 298 299 299 300 302 304 306 307 307 308 309 309 310 312 313 316 315 313 317 317 320 324 324 324 323 322 320 319 318 315 316 317 313 309 316 318 320
296 295 295 295 295 296 296 296 296 296 298 299 301 302 302 302 302 302 303 304 306 307 306 306 307 310 312 315 317 322 323 323 322 321 319 317 314 313 312 311 313 314 319
295 294 293 293 292 292 293 293 293 292 295 295 295 296 298 297 296 295 296 297 298 298 299 299 301 303 305 307 311 315 318 321 321 321 320 320 319 320 318 314 312 312 317
293 292 291 291 290 289 289 290 290 289 291 293 293 293 292 294 294 293 293 293 294 295 296 296 298 299 301 303 306 307 312 316 318 319 323 321 320 320 319 317 314 311 313
291 290 289 289 289 288 287 287 287 287 288 289 291 291 290 289 290 291 291 291 291 292 292 294 295 296 298 299 301 303 305 307 310 313 315 318 321 323 322 320 318 314 308
289 288 287 287 287 287 286 286 286 285 286 287 288 288 287 287 287 288 287 288 289 289 289 290 292 294 295 297 297 299 300 301 305 306 303 306 308 311 317 320 319 318 314
288 287 286 285 286 286 284 284 284 284 284 285 285 285 285 285 285 285 285 285 286 286 287 288 289 290 291 294 295 296 297 297 296 298 297 299 303 305 307 310 312 314 317
288 287 286 284 284 284 283 282 282 282 282 283 283 283 283 283 283 283 283 284 284 285 285 285 286 287 288 291 292 293 294 293 293 294 295 295 296 297 300 303 304 307 309
286 286 284 283 282 282 281 281 281 281 281 282 282 281 281 281 280 281 281 282 282 283 283 284 284 285 286 288 291 290 291 291 292 293 292 293 294 294 295 296 297 296 299
286 285 283 282 281 280 279 279 279 280 280 280 280 279 279 279 279 280 280 280 281 281 281 282 283 284 285 287 287 287 288 288 289 291 292 292 292 292 293 292 293 294 294
285 284 283 281 280 279 279 278 278 279 279 279 279 278 278 278 278 279 279 280 280 280 281 281 282 284 284 285 286 287 286 287 287 288 289 291 291 289 291 292 293 293 292
285 285 282 280 278 277 276 276 276 276 277 277 277 277 276 276 276 277 278 279 279 279 280 281 282 283 283 285 285 285 285 285 286 285 287 288 288 290 291 292 293 293 292
285 282 280 278 276 275 275 275 275 276 276 276 275 275 275 275 275 276 277 277 278 279 280 281 281 281 282 283 283 283 283 284 284 285 286 286 287 288 289 291 292 292 293
283 281 278 275 275 274 274 275 275 274 274 274 274 274 274 274 275 276 276 276 277 278 279 280 280 279 280 281 282 282 282 282 282 283 284 285 286 288 287 288 288 288 290
282 278 276 274 272 272 273 273 273 273 273 272 272 272 272 272 274 274 274 275 276 278 278 278 277 277 278 279 281 281 281 280 280 281 283 284 284 286 288 286 285 286 288
276 274 273 272 271 270 272 272 271 271 270 270 270 271 271 272 273 273 273 275 276 276 277 277 276 277 276 278 280 280 279 278 278 279 280 281 280 281 283 283 284 284 286
273 272 270 269 269 270 271 270 269 268 269 269 269 270 271 271 272 272 273 274 274 275 275 275 275 275 276 276 279 280 278 277 276 276 276 277 278 279 280 281 279 279 282
270 269 268 267 268 269 270 268 267 267 267 267 268 268 269 271 271 271 272 273 273 274 273 274 273 274 275 276 277 278 278 277 274 273 274 275 277 277 277 276 278 278 277
269 269 268 266 266 267 268 267 265 266 265 265 266 267 268 269 270 270 271 272 272 273 272 273 271 272 274 275 276 276 276 275 273 272 273 273 273 273 272 273 274 272 271
267 267 267 265 264 264 264 264 264 264 263 265 266 268 267 268 268 270 270 271 271 271 271 271 270 270 272 273 274 274 273 273 272 270 269 270 270 270 269 268 269 269 268
266 266 265 264 263 263 262 262 262 262 265 265 266 266 267 267 267 268 268 269 270 272 270 270 271 268 269 271 273 272 271 271 270 266 266 265 264 264 264 264 265 266 266
265 264 264 262 262 261 260 259 259 260 262 265 266 265 266 266 266 265 266 267 268 269 270 271 271 269 271 271 271 270 269 270 268 264 262 261 261 261 261 261 262 263 263